Location: Bluff Heights
(33.7692°N, 118.1592°W)
Time: 21:52:22
(UTC+00:00)

First-Move - Pass Details

Date: 25 September 2021
Orbit: 574 x 666 km, 97.6° (Epoch: 19 October)

Event Time Altitude Azimuth Distance (km) Brightness Sun altitude
Rises 12:31:12 0° 10° (N) 2,859 ? -15.7°
Reaches altitude 10° 12:33:24 10° 9° (N) 1,938 ? -15.3°
Maximum altitude 12:37:35 78° 283° (WNW) 604 ? -14.4°
Drops below altitude 10° 12:41:40 10° 197° (SSW) 1,886 ? -13.6°
Sets 12:43:47 0° 196° (SSW) 2,774 ? -13.1°
